Location: Brachbach
(49.1847°N, 9.7240°E)
Time: 09:54:33
(UTC+00:00)

CZ-2D R/B - Pass Details

Date: 23 May 2024
Orbit: 791 x 843 km, 98.8° (Epoch: 15 June)

Event Time Altitude Azimuth Distance (km) Brightness Sun altitude
Rises 01:50:15 0° 13° (NNE) 3,414 6.7 -12.4°
Reaches altitude 10° 01:52:39 10° 11° (N) 2,473 5.7 -12.2°
Maximum altitude 01:58:06 68° 289° (WNW) 904 2.3 -11.6°
Enters shadow 02:02:43 14° 209° (SSW) 2,148 3.7 -11.1°
